WetterOnline ( https://www.wetteronline.de )

Wetter aktuell Riol

Aktuelles Wetter: Trier/Petrisberg (273m)

6-stündlich | Neueste Meldungen
Ortszeit Temperatur Wetter
Fr, 23.08. 20:00 24.6° C wolkenlos
Fr, 23.08. 14:00 26.5° C wolkenlos
Fr, 23.08. 8:00 11.2° C wolkenlos
Fr, 23.08. 2:00 13.8° C wolkenlos
Do, 22.08. 20:00 23.6° C leicht bewölkt
Do, 22.08. 14:00 24.1° C fast wolkenlos
Do, 22.08. 8:00 9.9° C wolkenlos
Do, 22.08. 2:00 13.4° C wolkenlos
Ortszeit Temperatur Wetter
Sa, 24.08. 1:00 16.7° C wolkig
Sa, 24.08. 0:50 16.7° C wolkig
Sa, 24.08. 0:40 17.2° C wolkig
Sa, 24.08. 0:30 17.5° C wolkig
Sa, 24.08. 0:20 17.5° C wolkig
Sa, 24.08. 0:10 18.0° C wolkig
Sa, 24.08. 0:00 18.6° C leicht bewölkt
Fr, 23.08. 23:30 19.1° C wolkenlos
Fr, 23.08. 23:00 19.7° C wolkenlos
Fr, 23.08. 22:30 20.3° C wolkenlos
Fr, 23.08. 22:00 21.0° C wolkenlos
Ortszeit Relative Feuchte Sichtweite
Fr, 23.08. 20:00 34% 70 km
Fr, 23.08. 14:00 33% 70 km
Fr, 23.08. 8:00 90% 40 km
Fr, 23.08. 2:00 80% 65 km
Do, 22.08. 20:00 40% 70 km
Do, 22.08. 14:00 40% 70 km
Do, 22.08. 8:00 91% 40 km
Do, 22.08. 2:00 77% 70 km
Ortszeit Relative Feuchte Sichtweite
Sa, 24.08. 1:00 62% 70 km
Sa, 24.08. 0:50 62% -
Sa, 24.08. 0:40 60% -
Sa, 24.08. 0:30 61% 70 km
Sa, 24.08. 0:20 61% -
Sa, 24.08. 0:10 60% -
Sa, 24.08. 0:00 56% 70 km
Fr, 23.08. 23:30 50% 70 km
Fr, 23.08. 23:00 49% 70 km
Fr, 23.08. 22:30 44% 70 km
Fr, 23.08. 22:00 43% 70 km
Ortszeit Niederschlagsmenge Niederschlagsart
Fr, 23.08. 20:00 0.0 l/m2 in 12 Std. -
Fr, 23.08. 14:00 0.0 l/m2 in 6 Std. -
Fr, 23.08. 8:00 0.0 l/m2 in 12 Std. -
Fr, 23.08. 2:00 0.0 l/m2 in 6 Std. -
Do, 22.08. 20:00 0.0 l/m2 in 12 Std. -
Do, 22.08. 14:00 0.0 l/m2 in 6 Std. -
Do, 22.08. 8:00 0.0 l/m2 in 12 Std. -
Do, 22.08. 2:00 0.0 l/m2 in 6 Std. -
Ortszeit Niederschlagsmenge Niederschlagsart
Sa, 24.08. 1:00 0.0 l/m2 in 1 Std. -
Sa, 24.08. 0:50 keine Meldung -
Sa, 24.08. 0:40 keine Meldung -
Sa, 24.08. 0:30 0.0 l/m2 in 1 Std. -
Sa, 24.08. 0:20 keine Meldung -
Sa, 24.08. 0:10 keine Meldung -
Sa, 24.08. 0:00 0.0 l/m2 in 1 Std. -
Fr, 23.08. 23:30 0.0 l/m2 in 1 Std. -
Fr, 23.08. 23:00 0.0 l/m2 in 1 Std. -
Fr, 23.08. 22:30 0.0 l/m2 in 1 Std. -
Fr, 23.08. 22:00 0.0 l/m2 in 1 Std. -
Ortszeit Stärke Spitze Richtung
km/h Bft. km/h Grad Sektor
Fr, 23.08. 20:00 9 2 31 90° O
Fr, 23.08. 14:00 9 2 28 30° NO
Fr, 23.08. 8:00 7 2 14 20° N
Fr, 23.08. 2:00 7 2 13 30° NO
Do, 22.08. 20:00 7 2 24 20° N
Do, 22.08. 14:00 9 2 20 320° NW
Do, 22.08. 8:00 7 2 18 30° NO
Do, 22.08. 2:00 9 2 22 30° NO
Ortszeit Stärke Spitze Richtung
km/h Bft. km/h Grad Sektor
Sa, 24.08. 1:00 6 1 15 10° N
Sa, 24.08. 0:50 6 1 - 10° N
Sa, 24.08. 0:40 9 2 - 50° NO
Sa, 24.08. 0:30 9 2 15 20° N
Sa, 24.08. 0:20 9 2 - 20° N
Sa, 24.08. 0:10 11 2 - 20° N
Sa, 24.08. 0:00 11 2 18 10° N
Fr, 23.08. 23:30 9 2 13 10° N
Fr, 23.08. 23:00 11 2 14 20° N
Fr, 23.08. 22:30 7 2 11 30° NO
Fr, 23.08. 22:00 7 2 11 60° NO
Ortszeit Untergrenze Bedeckung Gattung
total tief tief mittel hoch
Fr, 23.08. 20:00 - 0/8 0/8 - - -
Fr, 23.08. 14:00 - 0/8 0/8 - - -
Fr, 23.08. 8:00 - 0/8 0/8 - - -
Fr, 23.08. 2:00 - 0/8 0/8 - - -
Do, 22.08. 20:00 9000 m 8/8 0/8 - - -
Do, 22.08. 14:00 10500 m 2/8 0/8 - - -
Do, 22.08. 8:00 - 0/8 0/8 - - -
Do, 22.08. 2:00 - 0/8 0/8 - - -
Ortszeit Bedeckungsgrad in Achtel und Wolkenuntergrenze
Sa, 24.08. 1:00 7(10500m)
Sa, 24.08. 0:50 7(10500m)
Sa, 24.08. 0:40 7(10500m)
Sa, 24.08. 0:30 7(10500m)
Sa, 24.08. 0:20 7(10500m)
Sa, 24.08. 0:10 8(10500m)
Sa, 24.08. 0:00 5(10500m)
Fr, 23.08. 23:30 keine Wolken
Fr, 23.08. 23:00 keine Wolken
Fr, 23.08. 22:30 keine Wolken
Fr, 23.08. 22:00 keine Wolken
Ortszeit Luftdruck NN (hPa) Tendenz (hPa in 3 Std.)
Fr, 23.08. 20:00 1022 - 0,5
Fr, 23.08. 14:00 1023 - 1,6
Fr, 23.08. 8:00 1027 + 0,2
Fr, 23.08. 2:00 1026 + 0,3
Do, 22.08. 20:00 1024 - 0,2
Do, 22.08. 14:00 1025 - 1,2
Do, 22.08. 8:00 1027 + 0,6
Do, 22.08. 2:00 1027 + 0,1
Ortszeit Luftdruck NN (hPa) Tendenz (hPa in 3 Std.)
Sa, 24.08. 1:00 1022 - 0,4
Sa, 24.08. 0:50 1022 keine Meldung
Sa, 24.08. 0:40 1022 keine Meldung
Sa, 24.08. 0:30 1022 - 0,3
Sa, 24.08. 0:20 1022 keine Meldung
Sa, 24.08. 0:10 1022 keine Meldung
Sa, 24.08. 0:00 1022 - 0,2
Fr, 23.08. 23:30 1023 + 0,3
Fr, 23.08. 23:00 1022 + 0,3
Fr, 23.08. 22:30 1022 + 0,2
Fr, 23.08. 22:00 1022 + 0,3
Ortszeit Schneehöhe (cm)
Fr, 23.08. 20:00 -
Fr, 23.08. 14:00 -
Fr, 23.08. 8:00 -
Fr, 23.08. 2:00 -
Do, 22.08. 20:00 -
Do, 22.08. 14:00 -
Do, 22.08. 8:00 -
Do, 22.08. 2:00 -
Ortszeit Schneehöhe (cm)
Sa, 24.08. 1:00 -
Sa, 24.08. 0:50 -
Sa, 24.08. 0:40 -
Sa, 24.08. 0:30 -
Sa, 24.08. 0:20 -
Sa, 24.08. 0:10 -
Sa, 24.08. 0:00 -
Fr, 23.08. 23:30 -
Fr, 23.08. 23:00 -
Fr, 23.08. 22:30 -
Fr, 23.08. 22:00 -
Link zu dieser Seite / Seite empfehlen

Das Wetter in ...